Regional Weather Roundup
Issued by NWS Newport/Morehead, NC

Current Version | Previous Version | Text Only | Print | Product List | Glossary On
Versions: 1 2 3 4 5 6 7 8 9 10 11 12 13 14 15 16 17 18 19 20 21 22 23 24 25 26 27 28 29 30 31 32 33 34 35 36 37 38 39 40 41 42 43 44 45 46 47 48 49 50
000
ASUS42 KMHX 250113
RWRMHX
WEATHER ROUNDUP FOR EASTERN NORTH CAROLINA
NATIONAL WEATHER SERVICE NEWPORT/MOREHEAD CITY NC
900 PM EDT TUE MAY 24 2016

NOTE: "FAIR" INDICATES FEW OR NO CLOUDS BELOW 12,000 FEET
WITH NO SIGNIFICANT WEATHER AND/OR OBSTRUCTIONS TO VISIBILITY

NCZ015>017-031-032-045>047-102-103-250200-
NORTH COAST

CITY           SKY/WX    TMP DP  RH WIND       PRES   REMARKS
EDENTON        CLEAR    N/A N/A N/A CALM      30.08R
ELIZABETH CITY CLEAR     72  59  63 SW5       30.07R
KITTY HAWK     CLEAR     71  60  67 S3        30.07R
MANTEO         CLEAR     71  66  86 SW9       30.08R

$$

NCZ045>047-081-094-103-104-250200-
CENTRAL COAST

CITY           SKY/WX    TMP DP  RH WIND       PRES   REMARKS
FRISCO         CLEAR     69  62  78 SW14      30.11R

$$

NCZ095-097-098-100-101-250200-
SOUTHERN COAST

CITY           SKY/WX    TMP DP  RH WIND       PRES   REMARKS
BEAUFORT       CLEAR     70  61  73 SW14      30.13R
CEDAR ISLAND   NOT AVBL
JACKSONVILLE   CLEAR     68  58  70 S6        30.11R
PINEY ISLAND   CLEAR    N/A N/A N/A SW10      30.11R
WILMINGTON     CLEAR     70  56  61 SW6       30.13R


$$

NCZ011>013-027>030-043-044-078>080-089-090>093-098-250200-
COASTAL PLAIN

CITY           SKY/WX    TMP DP  RH WIND       PRES   REMARKS
AHOSKIE        CLEAR     66  58  75 CALM      30.08R
CLINTON        CLEAR     70  60  71 CALM      30.11R
ELIZABETHTOWN  CLEAR     73  59  60 CALM      30.11S
GOLDSBORO      CLEAR     73  54  52 CALM      30.08R
GREENVILLE     CLEAR     68  59  73 CALM      30.10R
HAVELOCK       PTCLDY    68  58  70 S9        30.12R
KENANSVILLE    PTCLDY    65  58  78 CALM      30.11R
KINSTON        CLEAR     66  59  77 SW3       30.10R
NEW BERN       CLEAR     68  56  65 S8        30.12R
RICHLANDS      CLEAR     68  60  75 S7        30.12R
ROCKY MOUNT    CLEAR     67  58  72 CALM      30.08R
WASHINGTON     CLEAR     70  56  61 CALM      30.08R
WHITEVILLE     CLEAR     71  57  60 S5        30.13R

$$

AMZ130-135-150-152-154-156-158-170-250-252-270-ANZ085-086-088-633-658-670-250200-
MARINE OBSERVATIONS

STATION/POSITION TIME  TEMP    WIND        PRES    WAVE   SWELL
                       AIR SEA DIR/SP/G            HT/PER HT/PER
                 (UTC) (F)     (DEG/KT/KT) (MB)    (FT/S) (FT/S)
CHESAPEAKE LIGHT 0100   71     170/  8/  9 1018.4
64 E VA BEACH    0050   63 56  210/  8/  8 1018.0    3/ 8   2/ 8
DUCK             0000   74                 1017.0
2 E DUCK         0011      63                N/A     2/ 9
OREGON INLET     0000   70                 1018.0
13E OREGON INLT  0100      63                N/A     3/11   2/11
HATTERAS CG      0000   69                 1018.6
DIAMOND BUOY     0050   73 79  230/ 19/ 23 1019.3    4/ 4   2/ 9
CAPE LOOKOUT     0100   71     220/  9/ 12 1019.9
BEAUFORT LAB     0000   71                 1019.0
30 SE NEW RVR IN 0025      73                N/A     4/ 5
27 SE WRIGHTSVLE 0008   73 73  220/ 12/ 16 1019.6
5 SE WRIGHTSVLE  0008   72 72  220/ 12/ 17 1020.5
225 S CAPE HAT   0050   73 78   20/  4/  8 1021.2    4/ 9   5/ 9
41 SE CHARLESTON 0050   76 76  170/ 10/ 12 1020.7    2/ 8   2/ 8

$$




USA.gov is the U.S. government's official web portal to all federal, state and local government web resources and services.